Weather History for KMNM - December, 2010

Change the Weather History Date:

Monday, December 20, 2010

  Actual Average Record
Temperature  
Mean Temperature 10 °F -  
Max Temperature 23 °F 30 °F 44 °F (1956)
Min Temperature -2 °F 13 °F -18 °F (1989)
Degree Days  
Heating Degree Days 54    
Moisture  
Dew Point 2 °F    
Average Humidity 64    
Maximum Humidity 79    
Minimum Humidity 54    
Precipitation  
Precipitation 0.00 in - - ()
Sea Level Pressure  
Sea Level Pressure 30.13 in    
Wind  
Wind Speed 1 mph (WNW)    
Max Wind Speed 7 mph    
Max Gust Speed -    
Visibility 7 miles    
Events      
Averages and records for this station are not official NWS values.
T = Trace of Precipitation, MM = Missing Value Source: NWS Daily Summary

Daily Weather History Graph

Daily Weather History Graph

Search for Another Location

Airport or City:

Trip Planner

Search our weather history database for the weather conditions in past years. The results will help you decide how hot, cold, wet, or windy it might be!

Date:

Astronomy

Dec. 20, 2010 Rise Set
Actual Time 7:25 AM CST 4:10 PM CST
Civil Twilight 6:51 AM CST 4:44 PM CST
Nautical Twilight 6:14 AM CST 5:22 PM CST
Astronomical Twilight 5:38 AM CST 5:57 PM CST
Moon 3:37 PM CST (12/20) 6:50 AM CST (12/20)
Length of Visible Light 9h 53m
Length of Day
8h 45m
Full, 100% of the Moon is Illuminated
Dec 20
Full
Dec 21
Full
Dec 27
Last Quarter
Jan 4
New
Jan 12
First Quarter

Hourly Weather History & Observations

Time (CST) Temp. Windchill Dew Point Humidity Pressure Visibility Wind Dir Wind Speed Gust Speed Precip Events Conditions
12:15 AM 6.8 °F - -0.4 °F 72% 30.07 in 4.0 mi Calm Calm - N/A   Clear
12:35 AM 6.8 °F -0.1 °F -2.2 °F 67% 30.08 in 5.0 mi West 3.5 mph - N/A   Clear
12:55 AM 5.0 °F - -4.0 °F 66% 30.08 in 5.0 mi Calm Calm - N/A   Clear
1:15 AM 5.0 °F -5.6 °F -5.8 °F 61% 30.08 in 5.0 mi WSW 5.8 mph - N/A   Clear
1:35 AM 6.8 °F - -0.4 °F 72% 30.09 in 5.0 mi Calm Calm - N/A   Clear
2:35 AM 3.2 °F - -5.8 °F 66% 30.09 in 5.0 mi Calm Calm - N/A   Clear
2:55 AM 1.4 °F - -7.6 °F 66% 30.09 in 5.0 mi Calm Calm - N/A   Clear
3:15 AM 1.4 °F - -7.6 °F 66% 30.09 in 5.0 mi Calm Calm - N/A   Clear
3:35 AM 1.4 °F - -7.6 °F 66% 30.10 in 5.0 mi Calm Calm - N/A   Clear
3:55 AM 1.4 °F - -9.4 °F 61% 30.10 in 5.0 mi Calm Calm - N/A   Clear
4:15 AM 1.4 °F - -7.6 °F 66% 30.10 in 5.0 mi Calm Calm - N/A   Clear
4:35 AM -0.4 °F - -9.4 °F 66% 30.09 in 5.0 mi Calm Calm - N/A   Clear
4:55 AM 1.4 °F - -7.6 °F 66% 30.10 in 5.0 mi Calm Calm - N/A   Clear
5:15 AM -0.4 °F - -9.4 °F 66% 30.10 in 5.0 mi Calm Calm - N/A   Clear
5:55 AM -0.4 °F - -9.4 °F 66% 30.12 in 5.0 mi Calm Calm - N/A   Clear
6:15 AM -0.4 °F -8.3 °F -9.4 °F 66% 30.13 in 5.0 mi WNW 3.5 mph - N/A   Clear
6:35 AM -0.4 °F - -11.2 °F 60% 30.13 in 5.0 mi Calm Calm - N/A   Clear
6:55 AM -0.4 °F - -7.6 °F 72% 30.13 in 5.0 mi Calm Calm - N/A   Clear
7:15 AM -0.4 °F - -9.4 °F 66% 30.13 in 4.0 mi Calm Calm - N/A   Clear
7:35 AM -2.2 °F - -11.2 °F 66% 30.13 in 4.0 mi Calm Calm - N/A   Clear
7:55 AM -0.4 °F - -11.2 °F 60% 30.14 in 3.0 mi Calm Calm - N/A   Clear
8:15 AM -0.4 °F - -9.4 °F 66% 30.15 in 3.0 mi Calm Calm - N/A   Clear
8:35 AM 1.4 °F - -7.6 °F 66% 30.15 in 4.0 mi Calm Calm - N/A   Clear
8:55 AM 3.2 °F - -2.2 °F 78% 30.15 in 4.0 mi Calm Calm - N/A   Clear
9:15 AM 6.8 °F - -0.4 °F 72% 30.15 in 4.0 mi Calm Calm - N/A   Clear
9:35 AM 8.6 °F - 1.4 °F 73% 30.15 in 5.0 mi Calm Calm - N/A   Clear
9:55 AM 12.2 °F - 3.2 °F 67% 30.16 in 5.0 mi Calm Calm - N/A   Clear
10:15 AM 12.2 °F - 6.8 °F 79% 30.16 in 5.0 mi Calm Calm - N/A   Clear
10:35 AM 12.2 °F - 3.2 °F 67% 30.16 in 5.0 mi Calm Calm - N/A   Clear
10:55 AM 15.8 °F - 3.2 °F 58% 30.15 in 5.0 mi Calm Calm - N/A   Clear
11:15 AM 17.6 °F - 5.0 °F 58% 30.16 in 5.0 mi Calm Calm - N/A   Clear
11:35 AM 17.6 °F - 6.8 °F 63% 30.15 in 5.0 mi Calm Calm - N/A   Clear
11:55 AM 19.4 °F - 6.8 °F 58% 30.15 in 5.0 mi Calm Calm - N/A   Clear
12:15 PM 19.4 °F 12.8 °F 10.4 °F 68% 30.14 in 6.0 mi South 4.6 mph - N/A   Clear
12:35 PM 19.4 °F 14.3 °F 8.6 °F 63% 30.15 in 8.0 mi South 3.5 mph - N/A   Clear
12:55 PM 21.2 °F 13.6 °F 8.6 °F 58% 30.14 in 8.0 mi SW 5.8 mph - N/A   Clear
1:15 PM 21.2 °F 12.6 °F 6.8 °F 54% 30.15 in 9.0 mi SW 6.9 mph - N/A   Clear
1:35 PM 21.2 °F 14.9 °F 6.8 °F 54% 30.15 in 10.0 mi SSW 4.6 mph - N/A   Clear
1:55 PM 21.2 °F 16.4 °F 8.6 °F 58% 30.15 in 9.0 mi SW 3.5 mph - N/A   Clear
2:15 PM 21.2 °F - 8.6 °F 58% 30.14 in 9.0 mi Calm Calm - N/A   Partly Cloudy
2:35 PM 21.2 °F - 8.6 °F 58% 30.15 in 9.0 mi Calm Calm - N/A   Mostly Cloudy
2:55 PM 21.2 °F - 8.6 °F 58% 30.14 in 9.0 mi Calm Calm - N/A   Overcast
3:15 PM 21.2 °F - 6.8 °F 54% 30.14 in 10.0 mi Calm Calm - N/A   Overcast
3:35 PM 21.2 °F - 6.8 °F 54% 30.14 in 10.0 mi Calm Calm - N/A   Overcast
3:55 PM 21.2 °F - 8.6 °F 58% 30.15 in 10.0 mi Calm Calm - N/A   Overcast
4:55 PM 21.2 °F 16.4 °F 8.6 °F 58% 30.15 in 10.0 mi North 3.5 mph - N/A   Overcast
5:15 PM 21.2 °F 16.4 °F 8.6 °F 58% 30.14 in 10.0 mi NNE 3.5 mph - N/A   Overcast
5:35 PM 21.2 °F - 8.6 °F 58% 30.15 in 10.0 mi Calm Calm - N/A   Overcast
5:55 PM 21.2 °F 14.9 °F 10.4 °F 63% 30.14 in 10.0 mi NE 4.6 mph - N/A   Overcast
6:15 PM 21.2 °F 16.4 °F 10.4 °F 63% 30.14 in 10.0 mi NNE 3.5 mph - N/A   Overcast
6:35 PM 21.2 °F - 10.4 °F 63% 30.14 in 10.0 mi Calm Calm - N/A   Overcast
6:55 PM 21.2 °F - 10.4 °F 63% 30.15 in 10.0 mi Calm Calm - N/A   Overcast
7:15 PM 23.0 °F - 10.4 °F 59% 30.14 in 10.0 mi Calm Calm - N/A   Overcast
7:35 PM 23.0 °F 18.4 °F 10.4 °F 59% 30.13 in 10.0 mi NE 3.5 mph - N/A   Overcast
7:55 PM 23.0 °F 18.4 °F 12.2 °F 63% 30.14 in 10.0 mi North 3.5 mph - N/A   Overcast
8:15 PM 23.0 °F 18.4 °F 12.2 °F 63% 30.13 in 10.0 mi NE 3.5 mph - N/A   Overcast
8:35 PM 23.0 °F 15.8 °F 14.0 °F 68% 30.11 in 10.0 mi East 5.8 mph - N/A   Overcast
8:55 PM 24.8 °F 17.9 °F 17.6 °F 74% 30.11 in 9.0 mi NE 5.8 mph - N/A   Overcast
9:15 PM 24.8 °F 16.1 °F 17.6 °F 74% 30.10 in 8.0 mi East 8.1 mph - N/A   Overcast
9:35 PM 28.4 °F 19.1 °F 21.2 °F 74% 30.08 in 10.0 mi SE 10.4 mph - N/A   Overcast
9:55 PM 30.2 °F 20.8 °F 21.2 °F 69% 30.09 in 10.0 mi SE 11.5 mph - N/A   Overcast
10:15 PM 28.4 °F 19.1 °F 21.2 °F 74% 30.10 in 10.0 mi SSE 10.4 mph - N/A   Overcast
10:35 PM 30.2 °F 22.6 °F 21.2 °F 69% 30.10 in 10.0 mi SE 8.1 mph - N/A   Overcast
10:55 PM 30.2 °F 21.9 °F 21.2 °F 69% 30.11 in 10.0 mi SSE 9.2 mph - N/A   Overcast
11:15 PM 30.2 °F 23.4 °F 21.2 °F 69% 30.11 in 10.0 mi SE 6.9 mph - N/A   Overcast
11:35 PM 30.2 °F 23.4 °F 21.2 °F 69% 30.11 in 10.0 mi SE 6.9 mph - N/A   Overcast
11:55 PM 30.2 °F 25.4 °F 21.2 °F 69% 30.11 in 10.0 mi ESE 4.6 mph - N/A   Overcast